Tracking 19242 objects as of 19-Sep-2018
HD Live streaming from Space Station
objects crossing your sky now

ASIASAT 3S

Track ASIASAT 3S now!
ASIASAT 3S is classified as:


NORAD ID: 25657
Int'l Code: 1999-013A
Perigee: 35,786.7 km
Apogee: 35,800.8 km
Inclination: 3.4 °
Period: 1,436.1 minutes
Semi major axis: 42164 km
RCS: 25.1486 m2 (large)
Launch date: March 21, 1999
Source: Asia Satellite Telecommunications Company (ASIASAT) (AC)
Launch site: TYURATAM MISSILE AND SPACE COMPLEX (TTMTR)

28 C-band, 16 Ku-band; broadcasting, internet services, multimedia, telecommunications
aabbcc
Your satellite tracking list
Your tracking list is empty




NASA's NSSDC Master Catalog

Two Line Element Set (TLE):
1 25657U 99013A   18261.40082481 -.00000253  00000-0  00000+0 0  9992
2 25657   3.4427  76.0267 0001676  76.2419 135.3596  1.00271732 71456
Source of the keplerian elements: AFSPC